�N����,����,�~����,�C��,���x,�C��,����,���ϕ���,�ő�u�ԕ���,�ő厞����,���˗�,�I�_���x,�n�����x,�ő啗���N��,DTYPE
"21/09/01","00:10",0.0,23.7,76.4,1008.3,341.3,1.2,2.1,338.3,0.00,19.3,27.0,"00:08:00",1
"21/09/01","00:20",0.0,23.2,76.8,1008.1,338.4,1.3,2.6,346.5,0.00,18.9,27.0,"00:19:44",1
"21/09/01","00:30",0.0,23.1,77.2,1008.1,309.8,1.3,2.6,325.8,0.00,18.9,27.0,"00:27:36",1
"21/09/01","00:40",0.0,22.8,76.4,1008.1,303.8,1.3,2.8,340.6,0.00,18.5,26.7,"00:39:28",1
"21/09/01","00:50",0.0,23.0,74.3,1008.1,326.0,2.2,3.4,321.4,0.00,18.2,26.9,"00:45:36",1
"21/09/01","01:00",0.0,23.2,73.5,1008.3,331.7,1.6,2.4,346.0,0.00,18.2,26.9,"00:50:24",1
"21/09/01","01:10",0.0,23.1,75.2,1007.6,338.8,1.3,2.6,339.5,0.00,18.5,26.9,"01:05:36",1
"21/09/01","01:20",0.0,23.0,77.2,1007.8,333.2,1.3,2.1,334.0,0.00,18.8,26.7,"01:11:52",1
"21/09/01","01:30",0.0,22.4,78.2,1007.6,334.5,1.3,2.4,329.2,0.00,18.5,26.8,"01:25:36",1
"21/09/01","01:40",0.0,22.4,78.3,1007.8,333.0,1.7,2.6,326.8,0.00,18.5,26.7,"01:39:28",1
"21/09/01","01:50",0.0,22.2,78.2,1007.4,330.2,1.8,2.9,345.4,0.00,18.3,26.7,"01:43:44",1
"21/09/01","02:00",0.0,22.1,78.0,1007.1,330.2,2.0,2.8,335.8,0.00,18.1,26.5,"01:53:04",1
"21/09/01","02:10",0.0,22.2,77.9,1007.4,332.5,2.1,3.3,332.7,0.00,18.2,26.6,"02:00:24",1
"21/09/01","02:20",0.0,22.2,77.7,1007.6,331.7,2.0,2.8,324.2,0.00,18.2,26.7,"02:11:12",1
"21/09/01","02:30",0.0,22.1,76.9,1007.6,324.4,1.8,2.9,345.1,0.00,17.9,26.5,"02:22:16",1
"21/09/01","02:40",0.0,22.2,76.6,1006.9,330.5,1.6,3.2,316.3,0.00,17.9,26.3,"02:32:40",1
"21/09/01","02:50",0.0,22.2,77.2,1006.7,336.7,1.1,1.9,339.0,0.00,18.1,26.3,"02:40:24",1
"21/09/01","03:00",0.0,21.7,78.4,1007.1,322.7,0.8,1.9,315.6,0.00,17.8,26.4,"02:58:56",1
"21/09/01","03:10",0.0,21.5,79.6,1006.9,327.2,1.5,2.9,332.6,0.00,17.9,26.3,"03:09:04",1
"21/09/01","03:20",0.0,21.5,80.0,1006.9,309.3,1.2,2.5,301.4,0.00,17.9,26.3,"03:13:36",1
"21/09/01","03:30",0.0,21.5,80.5,1007.1,322.4,1.5,2.5,328.2,0.00,18.0,26.2,"03:26:40",1
"21/09/01","03:40",0.0,21.4,80.7,1006.9,328.0,1.7,3.5,328.1,0.00,18.0,26.4,"03:30:08",1
"21/09/01","03:50",0.0,21.5,80.4,1007.4,330.4,2.0,2.9,331.6,0.00,18.0,26.2,"03:48:24",1
"21/09/01","04:00",0.0,21.6,80.0,1007.1,331.4,1.7,3.5,332.3,0.00,18.0,26.2,"03:54:16",1
"21/09/01","04:10",0.0,21.7,79.6,1007.1,322.6,1.5,3.1,343.2,0.00,18.1,26.1,"04:00:24",1
"21/09/01","04:20",0.0,21.6,79.8,1007.1,313.4,1.3,2.4,349.2,0.00,18.0,25.8,"04:16:56",1
"21/09/01","04:30",0.0,21.4,80.3,1007.1,337.1,1.2,2.4,339.6,0.00,17.9,26.1,"04:21:28",1
"21/09/01","04:40",0.0,21.2,81.1,1006.9,325.4,1.1,2.0,329.0,0.00,17.9,26.0,"04:37:20",1
"21/09/01","04:50",0.0,21.2,81.7,1006.9,324.6,1.3,2.0,318.8,0.00,18.0,26.0,"04:47:12",1
"21/09/01","05:00",0.0,21.2,81.8,1007.1,328.0,1.7,2.8,334.3,0.00,18.0,25.8,"04:55:52",1
"21/09/01","05:10",0.0,21.4,81.6,1006.9,326.4,1.7,2.6,323.7,0.00,18.2,25.8,"05:04:40",1
"21/09/01","05:20",0.0,21.5,81.2,1007.4,331.7,2.0,3.1,338.1,0.00,18.2,26.1,"05:15:04",1
"21/09/01","05:30",0.0,21.8,80.7,1006.9,310.8,1.7,3.6,346.1,0.00,18.4,26.0,"05:20:16",1
"21/09/01","05:40",0.0,21.9,80.4,1006.9,311.5,1.6,2.6,324.8,0.00,18.4,25.7,"05:30:08",1
"21/09/01","05:50",0.0,21.8,79.8,1006.9,330.0,2.0,3.2,330.6,0.00,18.2,25.8,"05:42:32",1
"21/09/01","06:00",0.0,21.8,79.7,1006.9,323.5,1.7,2.9,323.1,0.00,18.2,25.8,"05:51:36",1
"21/09/01","06:10",0.0,21.9,79.7,1006.7,288.0,1.1,2.2,323.6,0.00,18.3,25.8,"06:01:52",1
"21/09/01","06:20",0.0,22.0,80.4,1006.9,312.1,1.2,1.8,325.7,0.00,18.5,25.7,"06:15:44",1
"21/09/01","06:30",0.0,21.9,81.3,1007.1,319.9,1.2,1.8,330.2,0.01,18.6,25.6,"06:28:32",1
"21/09/01","06:40",0.0,21.9,82.0,1007.4,297.2,1.0,1.3,333.4,0.02,18.7,25.7,"06:30:40",1
"21/09/01","06:50",0.0,22.3,81.8,1006.9,301.7,1.0,1.4,310.3,0.05,19.1,25.4,"06:43:44",1
"21/09/01","07:00",0.0,22.8,80.9,1006.9,313.5,0.7,1.4,337.3,0.04,19.4,25.6,"06:53:44",1
"21/09/01","07:10",0.0,22.9,80.0,1007.1,17.4,0.3,1.3,338.4,0.03,19.3,25.6,"07:09:20",1
"21/09/01","07:20",0.0,23.2,80.1,1006.9,353.9,0.8,1.6,337.1,0.04,19.6,25.6,"07:12:56",1
"21/09/01","07:30",0.0,23.2,80.7,1006.9,341.6,1.1,1.8,338.9,0.06,19.7,25.6,"07:25:12",1
"21/09/01","07:40",0.0,23.2,80.5,1006.9,332.9,1.1,1.8,341.2,0.06,19.7,25.6,"07:36:24",1
"21/09/01","07:50",0.0,23.6,79.7,1006.9,290.7,0.7,1.2,315.5,0.07,19.9,25.6,"07:42:56",1
"21/09/01","08:00",0.0,23.9,78.6,1006.7,275.0,0.7,1.1,264.7,0.08,20.0,25.5,"07:54:24",1
"21/09/01","08:10",0.0,24.2,77.2,1006.9,295.1,0.7,1.9,330.3,0.08,20.0,25.7,"08:01:12",1
"21/09/01","08:20",0.0,24.3,76.2,1006.7,312.9,1.0,1.7,329.1,0.04,19.9,25.8,"08:16:08",1
"21/09/01","08:30",0.0,24.5,76.4,1006.9,304.0,0.7,1.4,314.5,0.02,20.1,25.7,"08:21:12",1
"21/09/01","08:40",0.0,24.4,76.9,1006.9,334.8,1.2,1.9,339.0,0.02,20.1,25.8,"08:33:28",1
"21/09/01","08:50",0.0,24.4,77.3,1006.9,322.9,0.8,1.3,337.0,0.04,20.2,25.6,"08:41:12",1
"21/09/01","09:00",0.0,25.0,77.6,1006.7,301.4,0.3,1.0,321.8,0.09,20.9,25.6,"08:53:44",1
"21/09/01","09:10",0.0,25.4,76.2,1006.9,274.8,0.5,1.2,330.1,0.16,20.9,25.5,"09:04:56",1
"21/09/01","09:20",0.0,26.2,73.9,1006.7,281.7,0.3,0.9,127.2,0.16,21.2,25.5,"09:18:00",1
"21/09/01","09:30",0.0,26.5,72.3,1006.7,157.3,0.3,1.3,125.5,0.16,21.1,25.8,"09:20:24",1
"21/09/01","09:40",0.0,26.8,69.5,1006.7,343.8,0.6,1.4,353.1,0.17,20.8,25.8,"09:32:00",1
"21/09/01","09:50",0.0,27.0,65.8,1006.4,214.9,0.5,1.0,239.2,0.18,20.1,25.7,"09:42:40",1
"21/09/01","10:00",0.0,27.7,64.3,1006.4,23.4,0.5,1.3,0.6,0.26,20.4,25.9,"09:59:36",1
"21/09/01","10:10",0.0,28.8,62.0,1006.9,42.7,0.7,1.6,3.5,0.37,20.8,25.7,"10:04:16",1
"21/09/01","10:20",0.0,29.0,59.9,1006.9,193.1,0.5,1.3,233.2,0.29,20.5,26.0,"10:18:32",1
"21/09/01","10:30",0.0,28.6,61.4,1007.1,0.6,0.5,1.7,323.1,0.14,20.5,26.0,"10:25:04",1
"21/09/01","10:40",0.0,28.2,63.1,1006.9,331.6,0.6,1.7,348.0,0.08,20.6,26.0,"10:38:08",1
"21/09/01","10:50",0.0,27.7,64.7,1006.4,315.5,0.7,1.6,342.7,0.10,20.5,25.9,"10:41:20",1
"21/09/01","11:00",0.0,28.2,65.2,1006.2,330.6,0.7,1.7,351.9,0.21,21.1,26.0,"10:50:02",1
"21/09/01","11:10",0.0,28.2,65.1,1006.2,349.5,1.0,2.0,319.4,0.15,21.1,26.1,"11:00:24",1
"21/09/01","11:20",0.0,28.3,64.6,1006.0,339.0,0.8,1.8,349.0,0.18,21.0,26.1,"11:19:12",1
"21/09/01","11:30",0.0,28.8,63.7,1006.2,335.4,1.0,2.4,343.8,0.30,21.3,26.2,"11:25:12",1
"21/09/01","11:40",0.0,29.2,62.5,1006.2,312.2,1.0,2.4,349.1,0.31,21.3,26.2,"11:36:24",1
"21/09/01","11:50",0.0,29.6,61.7,1006.4,341.1,1.0,2.1,342.3,0.35,21.5,26.3,"11:40:16",1
"21/09/01","12:00",0.0,30.1,61.3,1006.7,132.6,1.0,1.9,117.7,0.34,21.9,26.2,"11:55:20",1
"21/09/01","12:10",0.0,29.8,61.0,1006.4,36.7,0.6,2.0,8.9,0.23,21.5,26.3,"12:09:04",1
"21/09/01","12:20",0.0,29.6,62.7,1006.2,356.7,0.8,2.2,340.1,0.17,21.8,26.4,"12:14:08",1
"21/09/01","12:30",0.0,29.3,63.4,1006.0,352.8,1.0,2.5,336.8,0.18,21.7,26.2,"12:27:52",1
"21/09/01","12:40",0.0,29.7,64.0,1006.0,37.5,1.1,2.1,15.5,0.26,22.2,26.6,"12:33:28",1
"21/09/01","12:50",0.0,30.3,64.1,1006.2,8.9,1.0,2.2,348.1,0.32,22.8,26.5,"12:49:12",1
"21/09/01","13:00",0.0,30.2,63.3,1006.2,356.0,0.8,1.9,339.9,0.20,22.5,26.5,"12:58:16",1
"21/09/01","13:10",0.0,30.1,64.8,1005.7,5.2,0.6,1.8,10.9,0.13,22.8,26.7,"13:06:00",1
"21/09/01","13:20",0.0,29.9,66.0,1005.2,348.4,0.8,1.8,347.9,0.17,22.9,26.7,"13:15:44",1
"21/09/01","13:30",0.0,30.3,65.7,1005.2,357.2,0.8,1.6,319.7,0.26,23.2,26.6,"13:25:20",1
"21/09/01","13:40",0.0,31.7,65.0,1005.5,135.3,0.8,1.8,145.1,0.53,24.3,26.7,"13:39:52",1
"21/09/01","13:50",0.0,31.3,63.6,1005.7,68.0,0.7,2.0,98.4,0.20,23.6,26.7,"13:42:16",1
"21/09/01","14:00",0.0,30.7,65.2,1005.2,350.1,1.2,2.0,351.7,0.11,23.5,26.9,"13:52:00",1
"21/09/01","14:10",0.0,30.8,67.0,1005.0,223.2,0.3,0.9,259.4,0.15,24.0,27.1,"14:00:48",1
"21/09/01","14:20",0.0,31.4,66.2,1005.0,56.0,0.7,1.9,106.2,0.24,24.4,26.9,"14:16:16",1
"21/09/01","14:30",0.0,31.9,64.6,1005.0,184.2,0.7,1.6,232.4,0.31,24.4,26.9,"14:25:04",1
"21/09/01","14:40",0.0,32.2,63.2,1005.2,240.8,0.6,1.6,68.3,0.27,24.4,27.0,"14:30:08",1
"21/09/01","14:50",0.0,31.5,64.5,1005.0,181.6,1.0,2.7,147.4,0.17,24.0,27.1,"14:47:20",1
"21/09/01","15:00",0.0,31.4,65.6,1004.8,287.3,0.6,1.4,355.7,0.16,24.2,27.0,"14:52:32",1
"21/09/01","15:10",0.0,31.1,65.0,1004.8,242.8,1.1,3.1,211.2,0.15,23.8,27.2,"15:03:28",1
"21/09/01","15:20",0.0,30.8,65.4,1004.5,336.1,1.5,3.4,353.0,0.15,23.6,27.2,"15:11:04",1
"21/09/01","15:30",0.0,30.8,66.0,1004.3,309.7,1.0,2.0,327.9,0.13,23.8,27.1,"15:28:56",1
"21/09/01","15:40",0.0,30.7,66.3,1004.3,337.9,1.2,2.5,334.7,0.13,23.7,27.2,"15:39:04",1
"21/09/01","15:50",0.0,30.5,67.1,1004.3,332.3,1.1,2.2,343.1,0.08,23.7,27.2,"15:40:16",1
"21/09/01","16:00",0.0,30.2,67.5,1003.8,256.9,1.3,2.7,0.4,0.07,23.6,27.1,"15:51:36",1
"21/09/01","16:10",0.0,30.2,68.1,1003.6,291.4,0.8,1.8,328.1,0.08,23.7,27.2,"16:02:24",1
"21/09/01","16:20",0.0,30.2,68.7,1003.4,326.2,1.2,2.6,344.2,0.09,23.8,27.3,"16:11:44",1
"21/09/01","16:30",0.0,30.1,68.8,1003.1,296.1,0.7,1.9,342.1,0.07,23.8,27.4,"16:20:56",1
"21/09/01","16:40",0.0,30.1,69.9,1002.9,176.8,0.5,1.6,233.9,0.05,24.0,27.2,"16:37:52",1
"21/09/01","16:50",0.0,29.9,71.2,1002.9,269.3,0.8,2.5,235.9,0.03,24.2,27.3,"16:48:48",1
"21/09/01","17:00",0.0,29.5,72.2,1002.4,342.9,0.7,1.9,338.5,0.02,24.0,27.2,"16:53:36",1
"21/09/01","17:10",0.0,29.5,73.7,1002.6,4.2,0.7,1.6,4.4,0.02,24.3,27.2,"17:04:08",1
"21/09/01","17:20",0.0,28.9,75.1,1002.2,307.3,0.7,1.7,344.0,0.01,24.1,27.1,"17:10:56",1
"21/09/01","17:30",0.0,28.8,76.3,1002.4,316.9,1.0,2.0,339.4,0.01,24.3,27.4,"17:29:28",1
"21/09/01","17:40",0.0,28.7,76.8,1001.9,336.5,1.0,1.9,347.7,0.02,24.3,27.4,"17:36:08",1
"21/09/01","17:50",0.0,28.7,77.0,1001.7,281.8,0.8,2.5,272.6,0.01,24.3,27.3,"17:46:32",1
"21/09/01","18:00",0.0,28.9,77.1,1001.5,252.0,0.8,2.2,239.2,0.01,24.5,27.2,"17:59:20",1
"21/09/01","18:10",0.0,28.8,77.4,1001.7,256.3,1.1,2.5,247.1,0.00,24.5,27.2,"18:06:32",1
"21/09/01","18:20",0.0,28.7,77.7,1001.7,252.6,1.3,3.7,238.5,0.00,24.5,27.2,"18:19:20",1
"21/09/01","18:30",0.0,28.6,78.2,1002.2,278.9,0.8,1.7,249.5,0.00,24.5,27.2,"18:21:52",1
"21/09/01","18:40",0.0,28.2,79.0,1002.2,329.3,1.1,1.7,329.3,0.00,24.3,27.2,"18:37:36",1
"21/09/01","18:50",0.0,27.8,80.0,1001.7,323.3,0.8,1.8,340.3,0.00,24.1,27.2,"18:46:24",1
"21/09/01","19:00",0.0,27.6,80.6,1002.2,300.4,0.8,2.0,323.5,0.00,24.0,27.2,"18:59:36",1
"21/09/01","19:10",0.0,27.5,80.2,1001.9,277.8,1.0,3.1,264.6,0.00,23.8,27.2,"19:08:34",1
"21/09/01","19:20",0.0,27.7,79.0,1002.4,318.1,1.1,2.7,316.3,0.00,23.8,27.1,"19:12:40",1
"21/09/01","19:30",0.0,27.8,77.6,1002.6,291.9,1.3,4.1,333.9,0.00,23.6,27.2,"19:29:12",1
"21/09/01","19:40",0.0,27.9,76.8,1002.9,286.7,1.1,2.6,283.2,0.00,23.5,27.2,"19:39:36",1
"21/09/01","19:50",0.0,28.0,76.4,1003.1,269.0,1.3,3.6,242.4,0.00,23.5,27.2,"19:43:04",1
"21/09/01","20:00",0.0,27.9,76.3,1003.1,294.7,1.1,2.9,279.9,0.00,23.4,26.9,"19:56:08",1
"21/09/01","20:10",0.0,27.8,76.6,1003.1,304.0,1.5,3.2,218.8,0.00,23.4,27.0,"20:07:20",1
"21/09/01","20:20",0.0,27.7,76.8,1003.4,296.9,1.2,2.8,264.7,0.00,23.3,27.1,"20:19:52",1
"21/09/01","20:30",0.0,27.6,77.2,1003.4,310.7,1.3,2.8,353.6,0.00,23.3,27.1,"20:21:20",1
"21/09/01","20:40",0.0,27.5,77.7,1002.9,298.1,1.2,2.7,309.8,0.00,23.3,26.8,"20:33:28",1
"21/09/01","20:50",0.0,27.6,78.0,1003.4,296.7,1.2,3.6,273.5,0.00,23.5,27.0,"20:44:00",1
"21/09/01","21:00",0.0,27.5,78.2,1003.1,307.2,1.2,3.3,342.5,0.00,23.4,27.0,"20:55:04",1
"21/09/01","21:10",0.0,27.4,78.6,1003.4,303.5,1.0,2.4,264.6,0.00,23.4,26.7,"21:05:12",1
"21/09/01","21:20",0.0,27.4,78.9,1003.1,318.0,0.8,2.1,352.4,0.00,23.5,26.8,"21:12:56",1
"21/09/01","21:30",0.0,27.3,79.0,1003.1,287.3,1.1,2.8,280.2,0.00,23.4,26.8,"21:26:40",1
"21/09/01","21:40",0.0,27.4,78.7,1002.9,283.0,1.2,3.3,337.2,0.00,23.4,26.7,"21:34:40",1
"21/09/01","21:50",0.0,27.4,78.4,1002.9,259.3,1.1,2.8,243.8,0.00,23.3,26.7,"21:42:56",1
"21/09/01","22:00",0.0,27.4,78.2,1002.6,300.6,0.6,2.5,238.7,0.00,23.3,26.7,"21:50:16",1
"21/09/01","22:10",0.0,27.3,78.5,1002.6,344.4,0.7,1.2,346.9,0.00,23.3,26.7,"22:06:16",1
"21/09/01","22:20",0.0,27.0,79.4,1002.6,339.1,1.0,1.7,343.1,0.00,23.2,26.8,"22:18:40",1
"21/09/01","22:30",0.0,26.8,80.4,1002.6,323.0,1.1,2.8,340.4,0.00,23.2,26.8,"22:27:36",1
"21/09/01","22:40",0.0,26.8,80.5,1002.6,328.9,1.6,3.3,352.7,0.00,23.2,26.7,"22:32:48",1
"21/09/01","22:50",0.0,26.9,80.3,1002.9,322.4,1.0,1.9,343.3,0.00,23.3,26.8,"22:46:16",1
"21/09/01","23:00",0.0,27.0,80.0,1002.6,271.4,1.3,2.7,238.2,0.00,23.3,26.8,"22:57:36",1
"21/09/01","23:10",0.0,27.0,79.7,1002.4,268.1,0.7,1.3,259.3,0.00,23.2,27.0,"23:01:28",1
"21/09/01","23:20",0.0,26.9,79.5,1002.6,279.0,1.2,2.5,216.4,0.00,23.1,26.7,"23:17:04",1
"21/09/01","23:30",0.0,26.9,79.2,1002.4,285.6,0.7,2.1,246.0,0.00,23.0,26.7,"23:20:08",1
"21/09/01","23:40",0.0,26.8,79.3,1002.2,287.4,0.6,1.8,322.6,0.00,23.0,26.5,"23:30:16",1
"21/09/01","23:50",0.0,26.8,79.8,1002.2,335.8,1.0,2.4,346.6,0.00,23.1,26.6,"23:46:24",1
"21/09/01","24:00",0.0,26.4,80.9,1002.2,341.2,1.2,1.9,343.1,0.00,22.9,26.5,"23:59:12",1
